Погода в Низино

Россия / Санкт-Петербург и Ленинградская область     59°49′59″N   29°52′32″E
темп.,
°C
ветер,
м/с
пор.,
м/с
влажн.,
%
обл.,
%
осадки,
мм/ч
давл.,
гПа
погр.,
м
6 августа, пт
пт600:00+11ссв228261 0.0 101615
03:00+10ссв238558 0.0 101541
06:00+12ссв2574100 0.0 1015156
09:00+15св36736 0.0 1014387
12:00+19всв795177 0.1 10141816
15:00+18св7105813 0.1 10131283
18:00+15св61077100 0.1 1013848
21:00+14всв51083100 0.1 1013616
7 августа, сб
сб700:00+13всв51188100 0.0 1012585
03:00+13всв51291100 0.0 1011522
06:00+14всв61389100 0.0 1010577
09:00+13всв61396100 0.4 1009583
12:00+14всв51298100 1.4 1008670
15:00+15в51298100 2.7 1007634
18:00+15в41099100 4.5 1006689
21:00+16вюв4999100 4.8 1006385
8 августа, вс
вс800:00+16в359999 0.0 1006223
03:00+16юв2499100 0.1 1007146
06:00+14ю379815 0.3 1008199
09:00+16ююз4692100 0.3 1009358
12:00+19ююз347775 0.2 1010742
15:00+17ююз3584100 0.8 1012339
18:00+21ююз246832 0.0 1012927
21:00+17ююв3386100 0.1 101352
9 августа, пн
пн900:00+16ю2492100 0.0 101362
03:00+15ю3694100 0.0 1014111
06:00+15юв379493 0.0 1013142
09:00+18юв4118396 0.0 1012416
12:00+24ю686099 0.0 10121441
15:00+22ююз686997 0.4 1014881
18:00+21ююз5875100 0.0 1014831
21:00+18юз48885 0.0 1015383
10 августа, вт
вт1000:00+15юз269711 0.0 1016137
03:00+14юз37951 0.0 1017134
06:00+14ююз37955 0.0 1017138
09:00+19юз3572100 0.0 1018531
12:00+23юз3452100 0.0 10181429
15:00+24юз3446100 0.0 10172010
18:00+19ссз2474100 0.0 1018180
21:00+17с118392 0.0 101711